EW6322 Weather Reports


time (UTC)temp
C
wind
direction
speed
KPH
gust
KPH
rain 1hr
cm
rain 24hr
cm
rain mn
cm
humidity
%
barometer
mb
20260906204629 40 93 1.6 8.0 0.00 0.00 0.00 28 1011.9
20260906203130 39 77 1.6 11.3 0.00 0.00 0.00 28 1012.0
20260906201629 38 224 6.4 19.3 0.00 0.00 0.00 30 1012.1
20260906200129 39 113 3.2 14.5 0.00 0.00 0.00 30 1012.3
20260906194629 39 11 3.2 9.7 0.00 0.00 0.00 32 1012.5
20260906193129 38 88 3.2 8.0 0.00 0.00 0.00 33 1012.6
20260906191628 38 140 1.6 6.4 0.00 0.00 0.00 34 1012.7
20260906190130 38 277 1.6 14.5 0.00 0.00 0.00 32 1013.0
20260906190033 39 292 1.6 14.5 0.00 0.00 0.00 32 1013.3
20260906183131 38 75 1.6 9.7 0.00 0.00 0.00 35 1013.4
20260906181628 38 215 1.6 12.9 0.00 0.00 0.00 34 1013.7
20260906180130 38 95 1.6 9.7 0.00 0.00 0.00 36 1013.8
20260906174629 38 187 1.6 8.0 0.00 0.00 0.00 37 1013.9
20260906173129 37 229 1.6 8.0 0.00 0.00 0.00 39 1014.1
20260906172327 35 116 0.0 6.4 0.00 0.00 0.00 42 1014.1
20260906170130 36 250 1.6 11.3 0.00 0.00 0.00 41 1014.5
20260906164629 35 84 1.6 9.7 0.00 0.00 0.00 42 1014.6
20260906163130 35 293 3.2 11.3 0.00 0.00 0.00 44 1014.6
20260906161629 34 229 1.6 11.3 0.00 0.00 0.00 46 1014.5
20260906160129 33 255 4.8 12.9 0.00 0.00 0.00 47 1014.0
20260906154629 33 251 3.2 9.7 0.00 0.00 0.00 48 1014.1
20260906153126 32 255 3.2 9.7 0.00 0.00 0.00 51 1013.9
20260906151623 32 235 3.2 11.3 0.00 0.00 0.00 52 1013.9
20260906150120 31 223 6.4 11.3 0.00 0.00 0.00 53 1013.8
20260906144618 30 221 6.4 11.3 0.00 0.00 0.00 56 1013.7
20260906143119 30 273 4.8 11.3 0.00 0.00 0.00 58 1013.8
20260906141618 28 221 6.4 12.9 0.00 0.00 0.00 60 1013.7
20260906140115 28 228 4.8 12.9 0.00 0.00 0.00 60 1013.7
20260906134614 28 232 6.4 11.3 0.00 0.00 0.00 61 1013.6
20260906133114 27 219 4.8 8.0 0.00 0.00 0.00 63 1013.6
20260906131614 26 226 4.8 8.0 0.00 0.00 0.00 65 1013.4
20260906130112 26 174 3.2 6.4 0.00 0.00 0.00 67 1013.3
20260906124612 25 231 1.6 3.2 0.00 0.00 0.00 68 1013.1
20260906123112 25 168 1.6 3.2 0.00 0.00 0.00 68 1012.9
20260906121612 25 169 1.6 4.8 0.00 0.00 0.00 69 1012.8
20260906120112 25 162 0.0 4.8 0.00 0.00 0.00 69 1012.7
20260906114612 25 238 0.0 1.6 0.00 0.00 0.00 68 1012.6
20260906113112 25 238 0.0 1.6 0.00 0.00 0.00 67 1012.4
20260906111612 25 238 0.0 3.2 0.00 0.00 0.00 65 1012.3
20260906110112 26 238 1.6 4.8 0.00 0.00 0.00 64 1012.2
20260906104612 26 165 1.6 4.8 0.00 0.00 0.00 62 1011.9
20260906103112 26 172 1.6 9.7 0.00 0.00 0.00 61 1012.0
20260906101611 26 176 3.2 8.0 0.00 0.00 0.00 61 1011.9
20260906100802 26 166 1.6 4.8 0.00 0.00 0.00 61 1011.9
20260906094612 26 168 1.6 4.8 0.00 0.00 0.00 61 1012.0
20260906093110 26 169 0.0 3.2 0.00 0.00 0.00 60 1011.9
20260906092312 27 169 1.6 4.8 0.00 0.00 0.00 59 1011.9
20260906090811 27 164 1.6 4.8 0.00 0.00 0.00 59 1011.9
20260906084608 26 175 0.0 3.2 0.00 0.00 0.00 60 1011.7
20260906083106 27 232 0.0 3.2 0.00 0.00 0.00 59 1011.7
20260906082306 27 232 1.6 3.2 0.00 0.00 0.00 58 1011.5
20260906080104 27 232 1.6 3.2 0.00 0.00 0.00 58 1011.8
20260906075315 27 232 0.0 3.2 0.00 0.00 0.00 58 1011.7
20260906073102 27 232 1.6 3.2 0.00 0.00 0.00 57 1011.5
20260906072256 27 232 1.6 3.2 0.00 0.00 0.00 56 1011.7
20260906065955 28 232 3.2 4.8 0.00 0.00 0.00 56 1011.5
20260906063102 28 232 0.0 3.2 0.00 0.00 0.00 55 1011.8
20260906061601 28 232 1.6 4.8 0.00 0.00 0.00 55 1011.8
20260906060749 28 227 3.2 6.4 0.00 0.00 0.00 54 1011.8
20260906054601 28 229 0.0 4.8 0.00 0.00 0.00 54 1011.7
20260906053104 28 224 1.6 6.4 0.00 0.00 0.00 52 1011.5
20260906051601 29 174 1.6 6.4 0.00 0.00 0.00 51 1011.4
20260906044601 29 164 0.0 3.2 0.00 0.00 0.00 51 1011.5
20260906043103 29 164 1.6 4.8 0.00 0.00 0.00 50 1011.5
20260906041601 30 217 1.6 6.4 0.00 0.00 0.00 49 1011.5
20260906040103 30 168 1.6 6.4 0.00 0.00 0.00 48 1011.5
20260906034601 30 174 1.6 6.4 0.00 0.00 0.00 48 1011.5
20260906033103 30 165 1.6 11.3 0.00 0.00 0.00 48 1011.5
20260906031601 30 176 1.6 6.4 0.00 0.00 0.00 47 1011.3
20260906030104 31 176 1.6 4.8 0.00 0.00 0.00 47 1011.3
20260906024601 31 164 0.0 3.2 0.00 0.00 0.00 46 1011.1
20260906023104 31 179 0.0 4.8 0.00 0.00 0.00 46 1011.1
20260906021600 31 180 0.0 4.8 0.00 0.00 0.00 46 1010.9
20260906020105 31 188 0.0 3.2 0.00 0.00 0.00 45 1010.8
20260906014601 31 189 0.0 3.2 0.00 0.00 0.00 45 1010.7
20260906013103 32 191 0.0 1.6 0.00 0.00 0.00 44 1010.4
20260906011601 32 191 0.0 3.2 0.00 0.00 0.00 42 1010.3
20260906010104 33 165 0.0 1.6 0.00 0.00 0.00 40 1010.5
20260906005257 35 165 1.6 4.8 0.00 0.00 0.00 38 1010.4
20260906003104 36 231 1.6 8.0 0.00 0.00 0.00 36 1010.6
20260906001601 37 155 0.0 3.2 0.00 0.00 0.00 33 1010.8
20260906000807 38 127 0.0 6.4 0.00 0.00 0.00 31 1010.8
20260905235252 38 146 0.0 6.4 0.00 0.00 0.00 32 1010.6
20260905233756 38 184 1.6 11.3 0.00 0.00 0.00 32 1010.6
20260905231600 38 208 3.2 11.3 0.00 0.00 0.00 32 1010.5
20260905224600 39 167 1.6 12.9 0.00 0.00 0.00 30 1010.6
20260905223102 39 147 1.6 9.7 0.00 0.00 0.00 30 1010.5
20260905221601 38 190 3.2 14.5 0.00 0.00 0.00 31 1010.5
20260905214601 38 161 1.6 16.1 0.00 0.00 0.00 31 1010.8
20260905213102 38 119 3.2 16.1 0.00 0.00 0.00 32 1011.0
20260905211601 38 154 3.2 11.3 0.00 0.00 0.00 32 1010.9
20260905211510 38 188 3.2 12.9 0.00 0.00 0.00 33 1011.2